Showing default

AE1C, 62649

Orbit data source: Space-Track

AE1C, 62649 is a payload satellite owned by ArkEdge (JP) in SSO that was launched on Tue, 14 Jan 2025 UTC via an FALCON 9 launch vehicle from the Air Force Western Test Range (AFWTR). Payload-class satellites include a variety of spacecraft equipped with specific instruments for various scientific and technological missions. These include communications satellites like Starlink; space stations such as the ISS; scientific satellites like the Hubble; Earth observation satellites from companies like Planet Labs, Umbra, and HawkEye 360; GPS; miniature CubeSats for education and research; and military/defense satellites.

Loading next visibility...
Identifier
62649, 2025-009AS
Orbit
SSO
Country
Flag of JPJP / JPN
Related business
Manufacturer
ArkEdge
Mission
Operational Commercial Technology
Bus & Motor
CUBESAT 6U, Unknown motor
Mass
~10 kg wet, ~10 kg dry
Launch date (UTC)
2025-01-14 (1 year ago)
Launch vehicle
FALCON 9
Launch site
Air Force Western Test Range (AFWTR)
Object type
Payload
Rocket body
Debris
Shape & HBR
Box + 2 Pan, 0.3 m
Radar Cross Section
0.080 m², Medium (>0.1 m² and < 1m²)

Expand to show TLE details & history
Last TLE update: 8 hours ago

TLE from 8 hours ago
0 AE1C
1 62649U 25009AS  26034.21590554  .00036783  00000-0  10000-2 0  9999
2 62649  97.4124 119.8579 0002068  67.9963 292.1501 15.37457689 58640
Epoch: 2026-02-03T05:10Z
TLE epoch observation values (Epoch: 2026-02-03T05:10:54.238Z)
Latitude
-0.00005°
Longitude
-91.26811°
Altitude
456.211 km
Speed
7.639 km/s
True Right ascension
07h 59m 25s
True Declination
0° 00' 00"
Sunlit
Object was in full shadow at epoch
Visualization orbit readout
Latitude
Unknown
Longitude
Unknown
Altitude
Unknown
Speed
Unknown
Apparent Right ascension
Unknown
Apparent Declination
Unknown
Sunlit
N/A
Visualization observer readout
Local Sidereal Time
14:58:32
Azimuth
Unknown
Elevation
Unknown
Doppler factor
Unknown
Orbital elements
Apogee altitude
451.985 km
Perigee altitude
449.161 km
Semi-major axis
6,828.71 km
Eccentricity
0.00021
Inclination
97.4124°
RAAN
119.8579°
Arg. of periapsis
67.9963°
True anomaly
292.12815°
Mean anomaly
292.1501°
Eccentric anomaly
292.13912°
Mean motion
3.84623 °/min
Orbital period
93.6 mins
BSTAR
0.001
Loading maneuver chart data...
Computing Atmospheric mass density...
Loading historical data...
Loading historical data...
Loading historical data...
Loading historical data...
Loading historical data...
Loading historical data...
Loading historical data...

Documentation

Showing up to 5 results
|